Copenhagen, Denmark

2:04 AM CET on February 28, 2017 (GMT +0100)
Kastrup

Weather History for EKCH - December, 2012

Change the Weather History Date:

Wednesday, December 12, 2012

  Actual Average Record
Temperature  
Mean Temperature 27 °F -  
Max Temperature 29 °F 38 °F 50 °F (2000)
Min Temperature 25 °F 31 °F 21 °F (1998)
Degree Days  
Heating Degree Days 38    
Moisture  
Dew Point 20 °F    
Average Humidity 72    
Maximum Humidity 86    
Minimum Humidity 58    
Precipitation  
Precipitation 0.00 in - - ()
Sea Level Pressure  
Sea Level Pressure 30.08 in    
Wind  
Wind Speed 7 mph ()    
Max Wind Speed 13 mph    
Max Gust Speed -    
Visibility 7.7 miles    
Events Snow    
Averages and records for this station are not official NWS values.
T = Trace of Precipitation, MM = Missing Value Source: Averaged Metar Reports

Daily Weather History Graph

Daily Weather History Graph

Search for Another Location

Airport or City:

Trip Planner

Search our weather history database for the weather conditions in past years. The results will help you decide how hot, cold, wet, or windy it might be!

Date:

Astronomy

Dec. 12, 2012 Rise Set
Actual Time 8:29 AM CET 3:36 PM CET
Civil Twilight 7:43 AM CET 4:23 PM CET
Nautical Twilight 6:54 AM CET 5:11 PM CET
Astronomical Twilight 6:09 AM CET 5:56 PM CET
Moon 7:08 AM CET (12/12) 3:00 PM CET (12/12)
Length of Visible Light 8h 40m
Length of Day
7h 07m
Waning Crescent, 1% of the Moon is Illuminated
Dec 12
Waning Crescent
Dec 13
New
Dec 20
First Quarter
Dec 28
Full
Jan 5
Last Quarter

Hourly Weather History & Observations

Time (CET) Temp. Windchill Dew Point Humidity Pressure Visibility Wind Dir Wind Speed Gust Speed Precip Events Conditions
12:20 AM 28.4 °F 18.5 °F 19.4 °F 69% 30.06 in 6.2 mi NNW 11.5 mph - N/A   Mostly Cloudy
12:50 AM 28.4 °F 18.5 °F 19.4 °F 69% 30.06 in 6.2 mi NW 11.5 mph - N/A   Mostly Cloudy
1:00 AM 28 °F - 20 °F 60% 30.08 in 16 mi NW 12.7 mph - -   Mostly Cloudy
1:20 AM 26.6 °F 18.2 °F 19.4 °F 74% 30.06 in 6.2 mi NNW 8.1 mph - N/A   Overcast
1:50 AM 28.4 °F 19.7 °F 19.4 °F 69% 30.06 in 6.2 mi NW 9.2 mph - N/A   Overcast
2:20 AM 26.6 °F 16.8 °F 17.6 °F 69% 30.06 in 6.2 mi NW 10.4 mph - N/A   Overcast
2:50 AM 26.6 °F 15.7 °F 19.4 °F 74% 30.06 in 6.2 mi NW 12.7 mph - N/A   Overcast
3:20 AM 26.6 °F 18.2 °F 19.4 °F 74% 30.06 in 6.2 mi NW 8.1 mph - N/A   Overcast
3:50 AM 28.4 °F 19.7 °F 19.4 °F 69% 30.06 in 6.2 mi NW 9.2 mph - N/A   Overcast
4:00 AM 28 °F - 19 °F 58% 30.07 in 16 mi NW 8.1 mph - -   Overcast
4:20 AM 28.4 °F 19.7 °F 19.4 °F 69% 30.06 in 6.2 mi NW 9.2 mph - N/A   Overcast
4:50 AM 28.4 °F 21.2 °F 19.4 °F 69% 30.06 in 6.2 mi NW 6.9 mph - N/A   Overcast
5:20 AM 28.4 °F 19.1 °F 19.4 °F 69% 30.06 in 6.2 mi NW 10.4 mph - N/A   Overcast
5:50 AM 28.4 °F 19.1 °F 19.4 °F 69% 30.06 in 6.2 mi WNW 10.4 mph - N/A   Overcast
6:20 AM 28.4 °F 19.1 °F 19.4 °F 69% 30.06 in 6.2 mi NW 10.4 mph - N/A   Overcast
6:50 AM 28.4 °F 21.2 °F 19.4 °F 69% 30.06 in 6.2 mi NW 6.9 mph - N/A   Overcast
7:00 AM 28 °F - 19 °F 58% 30.07 in 16 mi WNW 6.9 mph - -   Overcast
7:20 AM 28.4 °F 21.2 °F 19.4 °F 69% 30.06 in 6.2 mi NW 6.9 mph - N/A   Overcast
7:50 AM 28.4 °F 20.4 °F 19.4 °F 69% 30.06 in 6.2 mi NW 8.1 mph - N/A   Mostly Cloudy
8:20 AM 28.4 °F 21.2 °F 19.4 °F 69% 30.06 in 6.2 mi NNW 6.9 mph - N/A   Mostly Cloudy
8:50 AM 28.4 °F 21.2 °F 19.4 °F 69% 30.06 in 6.2 mi NW 6.9 mph - N/A   Mostly Cloudy
9:20 AM 28.4 °F 22.2 °F 21.2 °F 74% 30.06 in 6.2 mi WNW 5.8 mph - N/A   Mostly Cloudy
9:50 AM 28.4 °F - 23.0 °F 80% 30.09 in 6.2 mi ENE 2.3 mph - N/A   Mostly Cloudy
10:00 AM 28 °F - 25 °F 83% 30.10 in 19 mi NNE 4.6 mph - -   Mostly Cloudy
10:20 AM 28.4 °F 21.2 °F 24.8 °F 86% 30.09 in 6.2 mi North 6.9 mph - N/A   Mostly Cloudy
10:50 AM 28.4 °F 23.3 °F 24.8 °F 86% 30.09 in 6.2 mi NNE 4.6 mph - N/A   Mostly Cloudy
11:20 AM 28.4 °F 23.3 °F 24.8 °F 86% 30.09 in 6.2 mi North 4.6 mph - N/A   Mostly Cloudy
11:50 AM 28.4 °F 23.3 °F 24.8 °F 86% 30.09 in 6.2 mi ENE 4.6 mph - N/A   Mostly Cloudy
12:20 PM 28.4 °F - 23.0 °F 80% 30.09 in 6.2 mi East 2.3 mph - N/A   Mostly Cloudy
12:50 PM 28.4 °F 24.6 °F 23.0 °F 80% 30.09 in 6.2 mi East 3.5 mph - N/A   Mostly Cloudy
1:00 PM 28 °F - 24 °F 77% 30.10 in 19 mi East 3.5 mph - -   Mostly Cloudy
1:20 PM 28.4 °F 24.6 °F 23.0 °F 80% 30.09 in 6.2 mi East 3.5 mph - N/A   Mostly Cloudy
1:50 PM 28.4 °F - 23.0 °F 80% 30.09 in 6.2 mi ENE 2.3 mph - N/A   Mostly Cloudy
2:20 PM 28.4 °F - 23.0 °F 80% 30.09 in 6.2 mi ENE 1.2 mph - N/A   Mostly Cloudy
2:50 PM 28.4 °F - 17.6 °F 64% 30.09 in 6.2 mi ESE 2.3 mph - N/A Snow Light Snow
3:20 PM 28.4 °F - 19.4 °F 69% 30.09 in 6.2 mi ENE 2.3 mph - N/A Snow Light Snow
3:50 PM 28.4 °F - 19.4 °F 69% 30.09 in 6.2 mi North 1.2 mph - N/A   Mostly Cloudy
4:00 PM 28 °F - 19 °F 59% 30.11 in 16 mi NNE 1.2 mph - - Snow Light Snow
4:20 PM 28.4 °F - 19.4 °F 69% 30.09 in 6.2 mi NE 2.3 mph - N/A Snow Light Snow
4:50 PM 28.4 °F 24.6 °F 21.2 °F 74% 30.09 in 6.2 mi NNE 3.5 mph - N/A   Mostly Cloudy
5:20 PM 26.6 °F - 19.4 °F 74% 30.09 in 6.2 mi South 2.3 mph - N/A   Mostly Cloudy
5:50 PM 28.4 °F 24.6 °F 17.6 °F 64% 30.09 in 6.2 mi ESE 3.5 mph - N/A   Mostly Cloudy
6:20 PM 26.6 °F 22.6 °F 19.4 °F 74% 30.09 in 6.2 mi East 3.5 mph - N/A   Mostly Cloudy
6:50 PM 28.4 °F 22.2 °F 17.6 °F 64% 30.09 in 6.2 mi East 5.8 mph - N/A   Mostly Cloudy
7:00 PM 26 °F - 22 °F 77% 30.10 in 16 mi East 4.6 mph - -   Partly Cloudy
7:20 PM 26.6 °F 20.0 °F 23.0 °F 86% 30.09 in 6.2 mi East 5.8 mph - N/A   Mostly Cloudy
7:50 PM 26.6 °F 20.0 °F 17.6 °F 69% 30.09 in 6.2 mi East 5.8 mph - N/A   Mostly Cloudy
8:20 PM 26.6 °F 21.2 °F 17.6 °F 69% 30.09 in 6.2 mi East 4.6 mph - N/A   Mostly Cloudy
8:50 PM 26.6 °F 22.6 °F 17.6 °F 69% 30.09 in 6.2 mi East 3.5 mph - N/A   Mostly Cloudy
9:20 PM 26.6 °F 22.6 °F 17.6 °F 69% 30.09 in 6.2 mi East 3.5 mph - N/A   Mostly Cloudy
9:50 PM 28.4 °F 21.2 °F 19.4 °F 69% 30.09 in 6.2 mi East 6.9 mph - N/A   Mostly Cloudy
10:00 PM 27 °F - 20 °F 66% 30.10 in 16 mi East 8.1 mph - -   Mostly Cloudy
10:20 PM 26.6 °F 19.1 °F 19.4 °F 74% 30.09 in 6.2 mi East 6.9 mph - N/A   Mostly Cloudy
10:50 PM 26.6 °F 18.2 °F 21.2 °F 80% 30.09 in 6.2 mi East 8.1 mph - N/A   Mostly Cloudy
11:20 PM 26.6 °F 20.0 °F 19.4 °F 74% 30.09 in 6.2 mi East 5.8 mph - N/A   Mostly Cloudy
11:50 PM 26.6 °F 19.1 °F 21.2 °F 80% 30.09 in 6.2 mi East 6.9 mph - N/A   Mostly Cloudy